Date String (YYYY-MM-DD hh:mm:ss) UTC,Instrument flags,absolute air pressure of the measurement (hPa),sample flow rate (lpm),inlet stack bypass flow (lpm),air temperature of the measurement (°C),ambient temperature measured by the external sensor (°C),aerosol sample conditioner tube jacket temperature (°C),OPC LED temperature (°C),internal box temperature (°C),relative humidity of the measurement (%),span deviation,mass concentration of particles derived from Lorenz-Mie calculation of OPC scattering (μg/m³),mass concentration of particles derived from Lorenz-Mie calculation of OPC scattering (μg/m³),mass concentration of particles derived from Lorenz-Mie calculation of OPC scattering (μg/m³)
DateTimeUTC,F1_M11,P_M11,Q1_M11,Q2_M11,T1_M11,T2_M11,T3_M11,T4_M11,T5_M11,U1_M11,ZSPAN_M11,X0_M11,X2_M11,X1_M11
2024-05-13 22:00:00,SystemResetWarning,0826.0,5.00,000.00,024.0,021.0,000.0,032.6,024.6,025.7,0000.0,0009.32,0004.02,0003.37
2024-05-13 22:01:00,SystemResetWarning,0826.0,5.01,000.00,023.8,021.1,000.0,032.6,024.7,026.6,0000.0,0009.39,0004.01,0003.39
2024-05-13 22:02:00,SystemResetWarning,0826.0,5.01,000.00,023.7,021.5,000.0,032.4,024.9,025.8,0000.0,0009.35,0004.00,0003.43
2024-05-13 22:03:00,SystemResetWarning,0826.1,4.99,000.00,023.8,022.0,000.0,032.3,025.2,025.4,0000.0,0009.34,0004.01,0003.45
2024-05-13 22:04:00,SystemResetWarning,0826.1,5.00,000.00,023.8,022.4,000.0,032.2,025.5,025.6,0000.0,0009.74,0004.00,0003.46
2024-05-13 22:05:00,SystemResetWarning,0826.2,5.00,000.00,023.9,022.7,000.0,032.2,025.6,024.7,0000.0,0009.49,0004.07,0003.48
2024-05-13 22:06:00,SystemResetWarning,0826.2,4.99,000.00,024.0,023.0,000.0,032.2,025.8,024.1,0000.0,0009.60,0004.12,0003.51
2024-05-13 22:07:00,SystemResetWarning,0826.2,5.00,000.00,024.1,023.3,000.0,032.2,026.0,023.9,0000.0,0009.46,0004.09,0003.53
2024-05-13 22:08:00,SystemResetWarning,0826.2,5.00,000.00,024.2,023.5,000.0,032.2,026.1,023.6,0000.0,0009.39,0004.10,0003.55
2024-05-13 22:09:00,SystemResetWarning,0826.2,5.00,000.00,024.3,023.7,000.0,032.2,026.3,023.6,0000.0,0009.32,0004.10,0003.56
2024-05-13 22:10:00,SystemResetWarning,0826.2,5.00,000.00,024.4,023.9,000.0,032.3,026.4,024.0,0000.0,0009.49,0004.11,0003.57
2024-05-13 22:11:00,SystemResetWarning,0826.2,5.01,000.00,024.5,024.0,000.0,032.3,026.4,023.6,0000.0,0009.42,0004.12,0003.57
2024-05-13 22:12:00,SystemResetWarning,0826.2,5.00,000.00,024.5,024.0,000.0,032.4,026.4,023.1,0000.0,0009.19,0004.12,0003.58
2024-05-13 22:13:00,SystemResetWarning,0826.0,4.97,000.00,024.3,022.2,000.0,032.5,025.4,023.4,0000.0,0008.62,0004.13,0003.58
2024-05-13 22:14:00,SystemResetWarning,0825.9,5.00,000.00,023.9,020.9,000.0,032.5,024.7,023.7,0000.0,0008.75,0004.15,0003.57
2024-05-13 22:15:00,SystemResetWarning,0825.9,5.01,000.00,023.8,021.2,000.0,032.5,024.8,024.4,0000.0,0008.39,0004.15,0003.57
2024-05-13 22:16:00,SystemResetWarning,0826.0,5.00,000.00,023.7,021.6,000.0,032.3,025.0,026.8,0000.0,0008.26,0004.12,0003.57
2024-05-13 22:17:00,SystemResetWarning,0826.0,5.00,000.00,023.8,022.0,000.0,032.2,025.2,026.8,0000.0,0007.98,0004.10,0003.58
2024-05-13 22:18:00,SystemResetWarning,0826.0,5.00,000.00,023.9,022.4,000.0,032.2,025.5,025.6,0000.0,0007.96,0004.10,0003.58
2024-05-13 22:19:00,SystemResetWarning,0826.0,4.99,000.00,023.9,022.7,000.0,032.2,025.7,025.9,0000.0,0007.98,0004.11,0003.58
2024-05-13 22:20:00,SystemResetWarning,0826.0,4.99,000.00,024.0,023.1,000.0,032.2,025.9,027.2,0000.0,0007.92,0004.09,0003.57
2024-05-13 22:21:00,SystemResetWarning,0826.0,4.99,000.00,024.1,023.3,000.0,032.2,026.0,026.9,0000.0,0007.78,0004.07,0003.56
2024-05-13 22:22:00,SystemResetWarning,0826.0,4.99,000.00,024.2,023.5,000.0,032.2,026.1,027.8,0000.0,0007.43,0004.08,0003.54
2024-05-13 22:23:00,SystemResetWarning,0826.0,5.00,000.00,024.3,023.7,000.0,032.2,026.2,027.3,0000.0,0007.47,0004.06,0003.51
2024-05-13 22:24:00,SystemResetWarning,0825.9,5.01,000.00,024.4,023.9,000.0,032.3,026.3,026.4,0000.0,0007.44,0004.00,0003.47
2024-05-13 22:25:00,SystemResetWarning,0826.0,5.01,000.00,024.5,024.0,000.0,032.3,026.4,026.1,0000.0,0007.42,0003.97,0003.44
2024-05-13 22:26:00,SystemResetWarning,0826.0,5.00,000.00,024.5,024.2,000.0,032.4,026.5,025.6,0000.0,0007.75,0003.94,0003.40
2024-05-13 22:27:00,SystemResetWarning,0825.9,5.00,000.00,024.6,024.0,000.0,032.4,026.4,023.7,0000.0,0007.59,0003.87,0003.37
2024-05-13 22:28:00,SystemResetWarning,0825.9,4.98,000.00,024.4,022.2,000.0,032.5,025.4,023.7,0000.0,0007.79,0003.81,0003.33
2024-05-13 22:29:00,SystemResetWarning,0825.9,5.03,000.00,024.0,021.0,000.0,032.6,024.7,025.2,0000.0,0008.08,0003.78,0003.30
2024-05-13 22:30:00,SystemResetWarning,0825.9,4.99,000.00,023.8,021.3,000.0,032.5,024.8,027.0,0000.0,0008.12,0003.76,0003.26
2024-05-13 22:31:00,SystemResetWarning,0825.9,5.00,000.00,023.8,021.8,000.0,032.4,025.1,025.2,0000.0,0008.18,0003.74,0003.23
2024-05-13 22:32:00,SystemResetWarning,0825.9,5.00,000.00,023.9,022.2,000.0,032.3,025.4,024.3,0000.0,0008.33,0003.75,0003.22
2024-05-13 22:33:00,SystemResetWarning,0826.0,5.02,000.00,023.9,022.6,000.0,032.2,025.6,024.8,0000.0,0008.55,0003.71,0003.21
2024-05-13 22:34:00,SystemResetWarning,0826.0,5.00,000.00,024.0,022.9,000.0,032.2,025.8,025.3,0000.0,0008.71,0003.69,0003.21
2024-05-13 22:35:00,SystemResetWarning,0826.0,5.00,000.00,024.1,023.2,000.0,032.2,026.0,025.6,0000.0,0009.03,0003.70,0003.21
2024-05-13 22:36:00,SystemResetWarning,0826.0,5.00,000.00,024.2,023.4,000.0,032.2,026.1,026.1,0000.0,0008.93,0003.69,0003.22
2024-05-13 22:37:00,SystemResetWarning,0826.0,4.99,000.00,024.3,023.7,000.0,032.3,026.2,026.1,0000.0,0008.46,0003.68,0003.23
2024-05-13 22:38:00,SystemResetWarning,0826.1,4.99,000.00,024.4,023.8,000.0,032.3,026.4,026.2,0000.0,0008.44,0003.70,0003.23
2024-05-13 22:39:00,SystemResetWarning,0826.1,5.00,000.00,024.5,024.0,000.0,032.3,026.4,023.7,0000.0,0008.63,0003.70,0003.24
2024-05-13 22:40:00,SystemResetWarning,0826.1,5.01,000.00,024.5,024.1,000.0,032.4,026.5,022.9,0000.0,0008.36,0003.67,0003.22
2024-05-13 22:41:00,SystemResetWarning,0826.1,4.99,000.00,024.5,022.9,000.0,032.5,025.8,023.2,0000.0,0009.00,0003.63,0003.22
2024-05-13 22:42:00,SystemResetWarning,0826.0,4.99,000.00,024.1,021.2,000.0,032.5,024.9,024.0,0000.0,0009.25,0003.61,0003.22
2024-05-13 22:43:00,SystemResetWarning,0826.1,5.02,000.00,023.8,021.2,000.0,032.5,024.8,025.6,0000.0,0009.14,0003.57,0003.21
2024-05-13 22:44:00,SystemResetWarning,0826.0,4.99,000.00,023.8,021.6,000.0,032.4,025.0,025.7,0000.0,0008.70,0003.53,0003.19
2024-05-13 22:45:00,SystemResetWarning,0826.1,5.00,000.00,023.8,022.0,000.0,032.3,025.3,025.8,0000.0,0008.44,0003.51,0003.17
2024-05-13 22:46:00,SystemResetWarning,0826.1,5.01,000.00,023.9,022.4,000.0,032.2,025.5,023.9,0000.0,0007.97,0003.48,0003.15
2024-05-13 22:47:00,SystemResetWarning,0826.1,5.00,000.00,024.0,022.7,000.0,032.2,025.6,022.7,0000.0,0007.90,0003.45,0003.13
2024-05-13 22:48:00,SystemResetWarning,0826.1,5.00,000.00,024.0,023.0,000.0,032.2,025.8,022.3,0000.0,0007.91,0003.45,0003.13
2024-05-13 22:49:00,SystemResetWarning,0826.0,5.00,000.00,024.1,023.3,000.0,032.2,026.0,022.5,0000.0,0007.84,0003.42,0003.11
2024-05-13 22:50:00,SystemResetWarning,0825.9,4.99,000.00,024.2,023.5,000.0,032.2,026.1,022.6,0000.0,0007.34,0003.39,0003.07
2024-05-13 22:51:00,SystemResetWarning,0825.9,5.00,000.00,024.3,023.7,000.0,032.2,026.3,021.9,0000.0,0006.89,0003.36,0003.02
2024-05-13 22:52:00,SystemResetWarning,0825.9,5.00,000.00,024.4,023.9,000.0,032.3,026.4,022.2,0000.0,0005.59,0003.34,0002.97
2024-05-13 22:53:00,SystemResetWarning,0825.8,5.00,000.00,024.5,024.0,000.0,032.3,026.5,022.5,0000.0,0004.74,0003.31,0002.92
2024-05-13 22:54:00,SystemResetWarning,0825.6,5.00,000.00,024.5,023.5,000.0,032.4,026.1,022.5,0000.0,0004.71,0003.28,0002.86
2024-05-13 22:55:00,SystemResetWarning,0825.5,5.00,000.00,024.1,021.6,000.0,032.5,025.1,023.8,0000.0,0004.65,0003.25,0002.81
2024-05-13 22:56:00,SystemResetWarning,0825.5,5.01,000.00,023.8,021.0,000.0,032.5,024.7,025.5,0000.0,0004.59,0003.23,0002.77
2024-05-13 22:57:00,SystemResetWarning,0825.5,5.01,000.00,023.7,021.4,000.0,032.4,024.8,026.3,0000.0,0004.45,0003.20,0002.74
2024-05-13 22:58:00,SystemResetWarning,0825.6,4.99,000.00,023.8,021.8,000.0,032.3,025.1,027.5,0000.0,0004.44,0003.19,0002.72
2024-05-13 22:59:00,SystemResetWarning,0825.6,5.00,000.00,023.8,022.2,000.0,032.2,025.4,026.8,0000.0,0004.29,0003.15,0002.68
